Location: Champs
(48.8539°N, 2.6040°E)
Time: 17:34:25
(UTC+00:00)

Cosmos 1538 Rocket - Pass Details

Date: 26 May 2022
Orbit: 752 x 791 km, 74.0° (Epoch: 02 July)

Event Time Altitude Azimuth Distance (km) Brightness Sun altitude
Rises 21:13:00 0° 338° (NNW) 3,257 9.0 -12.0°
Reaches altitude 10° 21:15:26 10° 341° (NNW) 2,320 7.8 -12.2°
Maximum altitude 21:20:40 66° 64° (ENE) 837 4.1 -12.7°
Enters shadow 21:24:23 19° 143° (SE) 1,751 5.2 -13.1°
